When you browse on this site, cookies collect data to enhance your experience and personalize the content and advertising you see.
Visit our Privacy Policy to learn more. By continuing to use the site, you agree to this use of cookies and data.
  • în România
  • Lista ţărilor
  • Pe 7 zile
  • Temperatura apei
  • Hartă satelitară
  • Meteo pe hartă
  • Widget-uri
  • user-avatar
    Intrare

    Meteo pe oră la Sheshurino

    Astăzi, 23 Iulie, Marţi

    Timp Temperatura Precipitaţii Vânt Presiune Umiditate
    00:00 +16°C° 0 mm 1 m/s 739 mmHg 85%
    01:00 +15°C° 0 mm 1 m/s 739 mmHg 86%
    02:00 +15°C° 0 mm 1 m/s 739 mmHg 91%
    03:00 +15°C° 0 mm 1 m/s 739 mmHg 91%
    04:00 +15°C° 0 mm 1 m/s 738 mmHg 90%
    05:00 +15°C° 0 mm 1 m/s 738 mmHg 90%
    06:00 +16°C° 0 mm 1 m/s 738 mmHg 86%
    07:00 +19°C° 0 mm 1 m/s 738 mmHg 82%
    08:00 +20°C° 0 mm 1 m/s 738 mmHg 78%
    09:00 +20°C° 0.3 mm 2 m/s 738 mmHg 75%
    10:00 +21°C° 0.3 mm 2 m/s 738 mmHg 73%
    11:00 +22°C° 0.3 mm 3 m/s 738 mmHg 71%
    12:00 +22°C° 0.2 mm 3 m/s 738 mmHg 71%
    13:00 +22°C° 0.2 mm 3 m/s 738 mmHg 70%
    14:00 +22°C° 0.2 mm 3 m/s 738 mmHg 69%
    15:00 +22°C° 0.2 mm 3 m/s 738 mmHg 70%
    16:00 +22°C° 0.2 mm 3 m/s 738 mmHg 71%
    17:00 +22°C° 0.2 mm 3 m/s 738 mmHg 71%
    18:00 +20°C° 0.1 mm 2 m/s 738 mmHg 77%
    19:00 +19°C° 0.1 mm 2 m/s 738 mmHg 83%
    20:00 +18°C° 0.1 mm 1 m/s 738 mmHg 88%
    21:00 +16°C° 0 mm 1 m/s 738 mmHg 90%
    22:00 +15°C° 0 mm 1 m/s 739 mmHg 91%
    23:00 +15°C° 0 mm 1 m/s 739 mmHg 92%

    Mâine, 24 Iulie, Miercuri

    Timp Temperatura Precipitaţii Vânt Presiune Umiditate
    00:00 +14°C° 0 mm 1 m/s 739 mmHg 91%
    01:00 +14°C° 0 mm 1 m/s 739 mmHg 91%
    02:00 +14°C° 0 mm 2 m/s 739 mmHg 90%
    03:00 +14°C° 0 mm 2 m/s 739 mmHg 90%
    04:00 +14°C° 0 mm 2 m/s 739 mmHg 91%
    05:00 +14°C° 0 mm 2 m/s 739 mmHg 91%
    06:00 +15°C° 0 mm 2 m/s 739 mmHg 84%
    07:00 +16°C° 0 mm 2 m/s 739 mmHg 77%
    08:00 +18°C° 0 mm 3 m/s 740 mmHg 70%
    09:00 +19°C° 0 mm 3 m/s 740 mmHg 64%
    10:00 +21°C° 0 mm 3 m/s 740 mmHg 59%
    11:00 +22°C° 0 mm 4 m/s 740 mmHg 53%
    12:00 +22°C° 0 mm 4 m/s 740 mmHg 52%
    13:00 +22°C° 0 mm 4 m/s 740 mmHg 51%
    14:00 +23°C° 0 mm 5 m/s 740 mmHg 50%
    15:00 +22°C° 0 mm 4 m/s 740 mmHg 53%
    16:00 +22°C° 0 mm 4 m/s 740 mmHg 55%
    17:00 +21°C° 0 mm 4 m/s 740 mmHg 58%
    18:00 +19°C° 0 mm 3 m/s 740 mmHg 65%
    19:00 +18°C° 0 mm 2 m/s 740 mmHg 73%
    20:00 +18°C° 0 mm 1 m/s 740 mmHg 81%
    21:00 +16°C° 0 mm 1 m/s 740 mmHg 83%
    22:00 +15°C° 0 mm 1 m/s 740 mmHg 86%
    23:00 +14°C° 0 mm 1 m/s 740 mmHg 88%

    Poimâine, 25 Iulie, Joi

    Timp Temperatura Precipitaţii Vânt Presiune Umiditate
    00:00 +14°C° 0 mm 1 m/s 740 mmHg 89%
    01:00 +14°C° 0 mm 1 m/s 740 mmHg 89%
    02:00 +14°C° 0 mm 1 m/s 740 mmHg 89%
    03:00 +14°C° 0 mm 1 m/s 740 mmHg 90%
    04:00 +13°C° 0 mm 1 m/s 740 mmHg 92%
    05:00 +13°C° 0 mm 2 m/s 740 mmHg 93%
    06:00 +14°C° 0 mm 2 m/s 740 mmHg 86%
    07:00 +16°C° 0 mm 2 m/s 740 mmHg 78%
    08:00 +17°C° 0 mm 2 m/s 740 mmHg 71%
    09:00 +18°C° 0 mm 2 m/s 740 mmHg 67%
    10:00 +19°C° 0 mm 3 m/s 740 mmHg 64%
    11:00 +20°C° 0 mm 3 m/s 740 mmHg 61%
    12:00 +20°C° 0.2 mm 3 m/s 740 mmHg 66%
    13:00 +20°C° 0.2 mm 3 m/s 740 mmHg 71%
    14:00 +19°C° 0.2 mm 3 m/s 740 mmHg 76%
    15:00 +18°C° 0.2 mm 3 m/s 740 mmHg 81%
    16:00 +18°C° 0.2 mm 2 m/s 740 mmHg 86%
    17:00 +17°C° 0.2 mm 2 m/s 740 mmHg 91%
    18:00 +16°C° 0 mm 2 m/s 740 mmHg 92%
    19:00 +16°C° 0 mm 2 m/s 740 mmHg 94%
    20:00 +16°C° 0 mm 2 m/s 740 mmHg 96%
    21:00 +15°C° 0 mm 2 m/s 741 mmHg 97%
    22:00 +15°C° 0 mm 2 m/s 741 mmHg 98%
    23:00 +14°C° 0 mm 2 m/s 741 mmHg 99%

    26 Iulie, Vineri

    Timp Temperatura Precipitaţii Vânt Presiune Umiditate
    00:00 +14°C° 0 mm 2 m/s 741 mmHg 99%
    01:00 +14°C° 0 mm 2 m/s 741 mmHg 99%
    02:00 +14°C° 0 mm 2 m/s 741 mmHg 99%
    03:00 +15°C° 0 mm 2 m/s 742 mmHg 98%
    04:00 +16°C° 0 mm 2 m/s 742 mmHg 98%
    05:00 +16°C° 0 mm 3 m/s 742 mmHg 98%
    06:00 +17°C° 0 mm 3 m/s 742 mmHg 93%
    07:00 +18°C° 0 mm 3 m/s 743 mmHg 89%
    08:00 +19°C° 0 mm 3 m/s 743 mmHg 85%
    09:00 +21°C° 0 mm 3 m/s 743 mmHg 77%
    10:00 +22°C° 0 mm 3 m/s 743 mmHg 70%
    11:00 +25°C° 0 mm 3 m/s 743 mmHg 63%
    12:00 +26°C° 0.2 mm 3 m/s 743 mmHg 60%
    13:00 +27°C° 0.2 mm 4 m/s 743 mmHg 58%
    14:00 +28°C° 0.2 mm 4 m/s 743 mmHg 55%
    15:00 +27°C° 0.5 mm 3 m/s 742 mmHg 65%
    16:00 +26°C° 0.5 mm 3 m/s 742 mmHg 74%
    17:00 +25°C° 0.5 mm 2 m/s 742 mmHg 84%
    18:00 +24°C° 0.2 mm 2 m/s 742 mmHg 87%
    19:00 +21°C° 0.2 mm 2 m/s 742 mmHg 90%
    20:00 +20°C° 0.2 mm 2 m/s 742 mmHg 94%
    21:00 +19°C° 0 mm 2 m/s 742 mmHg 95%
    22:00 +19°C° 0 mm 2 m/s 742 mmHg 96%
    23:00 +18°C° 0 mm 2 m/s 742 mmHg 97%

    27 Iulie, Sâmbătă

    Timp Temperatura Precipitaţii Vânt Presiune Umiditate
    00:00 +18°C° 0 mm 2 m/s 742 mmHg 97%
    01:00 +17°C° 0 mm 2 m/s 742 mmHg 97%
    02:00 +17°C° 0 mm 2 m/s 742 mmHg 97%
    03:00 +17°C° 0 mm 2 m/s 742 mmHg 97%
    04:00 +17°C° 0 mm 2 m/s 742 mmHg 96%
    05:00 +17°C° 0 mm 2 m/s 742 mmHg 96%
    06:00 +19°C° 0 mm 2 m/s 742 mmHg 90%
    07:00 +20°C° 0 mm 3 m/s 742 mmHg 84%
    08:00 +22°C° 0 mm 3 m/s 742 mmHg 78%
    09:00 +25°C° 0 mm 3 m/s 742 mmHg 69%
    10:00 +26°C° 0 mm 4 m/s 742 mmHg 60%
    11:00 +28°C° 0 mm 4 m/s 742 mmHg 51%
    12:00 +28°C° 0 mm 4 m/s 741 mmHg 50%
    13:00 +28°C° 0 mm 4 m/s 741 mmHg 50%
    14:00 +29°C° 0 mm 4 m/s 740 mmHg 49%
    15:00 +28°C° 0.1 mm 3 m/s 740 mmHg 55%
    16:00 +27°C° 0.1 mm 3 m/s 740 mmHg 61%
    17:00 +27°C° 0.1 mm 2 m/s 740 mmHg 67%
    18:00 +25°C° 0.1 mm 2 m/s 740 mmHg 73%
    19:00 +23°C° 0.1 mm 2 m/s 739 mmHg 80%
    20:00 +21°C° 0.1 mm 2 m/s 739 mmHg 86%
    21:00 +20°C° 0 mm 2 m/s 739 mmHg 88%
    22:00 +19°C° 0 mm 2 m/s 739 mmHg 90%
    23:00 +19°C° 0 mm 2 m/s 739 mmHg 93%

    28 Iulie, Duminică

    Timp Temperatura Precipitaţii Vânt Presiune Umiditate
    00:00 +18°C° 0 mm 2 m/s 739 mmHg 94%
    01:00 +18°C° 0 mm 2 m/s 739 mmHg 95%
    02:00 +17°C° 0 mm 2 m/s 739 mmHg 96%
    03:00 +17°C° 0 mm 3 m/s 739 mmHg 95%
    04:00 +17°C° 0 mm 3 m/s 739 mmHg 94%
    05:00 +16°C° 0 mm 3 m/s 739 mmHg 93%
    06:00 +17°C° 0 mm 4 m/s 739 mmHg 86%
    07:00 +17°C° 0 mm 4 m/s 739 mmHg 80%
    08:00 +17°C° 0 mm 4 m/s 740 mmHg 73%
    09:00 +18°C° 0 mm 4 m/s 740 mmHg 69%
    10:00 +18°C° 0 mm 4 m/s 740 mmHg 65%
    11:00 +19°C° 0 mm 4 m/s 740 mmHg 61%
    12:00 +19°C° 0 mm 4 m/s 740 mmHg 57%
    13:00 +20°C° 0 mm 4 m/s 740 mmHg 52%
    14:00 +20°C° 0 mm 4 m/s 740 mmHg 48%
    15:00 +20°C° 0 mm 4 m/s 739 mmHg 49%
    16:00 +19°C° 0 mm 4 m/s 739 mmHg 50%
    17:00 +18°C° 0 mm 4 m/s 739 mmHg 51%
    18:00 +17°C° 0 mm 4 m/s 739 mmHg 58%
    19:00 +14°C° 0 mm 3 m/s 739 mmHg 66%
    20:00 +13°C° 0 mm 2 m/s 740 mmHg 73%
    21:00 +12°C° 0 mm 2 m/s 740 mmHg 74%
    22:00 +11°C° 0 mm 3 m/s 740 mmHg 75%
    23:00 +10°C° 0 mm 3 m/s 741 mmHg 76%
    Arată mai mult